Location: ???????
(55.3754°N, 39.3545°E)
Time: 01:30:42
(UTC+00:00)

SL-4 R/B - Pass Details

Date: 14 April 2026
Orbit: 380 x 505 km, 51.6° (Epoch: 20 May)

Event Time Altitude Azimuth Distance (km) Brightness Sun altitude
Exits shadow 23:43:10 44° 175° (S) 700 2.2 -18.6°
Maximum altitude 23:43:16 44° 171° (S) 699 2.2 -18.6°
Drops below altitude 10° 23:46:56 10° 98° (E) 1,690 4.9 -18.3°
Sets 23:49:08 0° 92° (E) 2,554 6.0 -18.1°
